Temperature
7 5 4 5 5 7 7 7 6 6 6 6 5 4 4 5 4 4 4 4 5 5 6 6 6 6 5 5 5 5 5 5 5 5 6 6 6 6 6 6 6 6 7 7
5 4 5 5 6 6 6 6 5 5 5 5 4 3 3 3 3 4 4 4 5 5 5 5 5 5 5 5 5 5 5 5 5 5 5 5 5 5 5 5 6 6 6 6
5 5 5 6 5 6 5 5 5 5 4 4 4 3 3 3 3 3 3 4 4 4 4 4 4 4 4 4 4 4 4 4 4 4 4 4 4 5 5 5 5 5 5 5
4 4 5 5 5 5 5 5 5 4 4 3 3 3 3 2 2 2 2 3 3 4 4 4 4 4 4 4 3 4 3 3 3 3 3 3 4 4 4 4 4 4 5 5
4 4 4 4 4 4 4 4 4 4 3 2 2 2 3 2 2 2 1 2 3 3 3 3 3 3 3 3 3 3 3 3 2 2 2 3 3 3 3 3 4 4 4 4
3 4 3 3 3 4 3 3 2 1 1 2 2 2 3 1 2 2 1 2 2 2 3 3 3 2 2 2 2 2 2 2 2 2 2 2 2 2 2 3 3 3 3 3
3 3 3 3 3 3 3 2 2 2 1 2 2 2 2 1 1 1 1 1 2 2 2 2 2 2 2 2 2 2 1 1 1 1 1 1 1 1 2 2 2 2 3 3
3 3 2 2 2 2 2 2 3 3 2 1 1 1 1 0 0 0 1 1 1 1 1 1 1 1 1 1 1 1 1 1 1 1 1 1 1 1 1 1 1 2 2 2
2 3 2 2 2 2 2 1 1 1 -0 -0 0 -0 0 -0 -1 -1 -1 -0 0 1 1 1 1 1 0 0 0 0 0 0 0 0 0 -0 -0 -0 -0 0 0 1 1 1
2 2 1 1 1 1 1 0 -0 0 1 1 0 -0 1 -0 -1 -2 -2 -1 -0 0 0 0 0 0 -0 -0 -0 -0 -0 -0 -0 -1 -1 -1 -1 -1 -1 -1 -1 -0 -0 0
1 1 1 0 0 1 0 0 -0 -1 -1 -0 -0 1 -0 -1 -1 -2 -2 -1 -1 -1 -1 -1 -1 -1 -1 -0 -1 -1 -1 -1 -1 -1 -1 -1 -1 -1 -1 -1 -1 -1 -1 -1
-0 -1 -0 -0 -1 -1 -0 -0 -1 -0 -1 -2 -2 0 -0 -2 -2 -2 -1 -1 -1 -1 -1 -1 -1 -1 -1 -1 -1 -1 -1 -1 -1 -2 -2 -2 -2 -2 -2 -2 -2 -2 -2 -2
-1 -1 0 1 0 -2 -2 -2 -2 -2 -2 -3 -2 0 -1 -3 -2 -2 -2 -1 -1 -1 -2 -2 -2 -2 -2 -2 -1 -2 -2 -2 -2 -2 -2 -2 -2 -3 -3 -3 -3 -3 -3 -3
-0 -2 -0 2 1 -1 -2 -2 -3 -3 -2 -3 -2 -1 -1 -2 -3 -3 -2 -2 -2 -2 -2 -2 -2 -2 -2 -2 -2 -2 -2 -2 -3 -3 -3 -3 -3 -3 -3 -3 -3 -4 -4 -3
-2 -2 -3 -2 -2 -2 -2 -2 -3 -3 -3 -2 -2 -2 -2 -3 -3 -3 -2 -2 -2 -2 -3 -3 -3 -3 -3 -3 -3 -3 -3 -3 -3 -4 -4 -4 -4 -4 -4 -4 -4 -4 -4 -4
-4 -3 -4 -3 -2 -3 -3 -3 -3 -3 -3 -3 -3 -3 -3 -3 -3 -3 -3 -3 -3 -3 -3 -3 -3 -3 -3 -3 -3 -3 -3 -4 -4 -4 -4 -4 -4 -4 -5 -5 -5 -5 -5 -5
-5 -4 -3 -3 -4 -3 -3 -3 -3 -4 -5 -4 -3 -3 -4 -4 -4 -4 -3 -3 -3 -3 -3 -4 -4 -4 -4 -4 -4 -4 -4 -4 -4 -5 -5 -5 -5 -5 -5 -5 -5 -5 -5 -5
-5 -5 -4 -4 -4 -2 -1 -4 -4 -4 -5 -5 -5 -5 -5 -4 -3 -3 -3 -3 -3 -3 -4 -4 -4 -4 -4 -4 -5 -5 -5 -5 -5 -5 -5 -5 -6 -6 -6 -6 -6 -6 -6 -6
-5 -5 -5 -5 -4 -4 -3 -4 -5 -5 -5 -6 -6 -5 -5 -5 -5 -4 -3 -3 -4 -4 -4 -4 -4 -5 -5 -5 -5 -5 -5 -6 -6 -6 -6 -6 -6 -6 -6 -6 -7 -7 -7 -7
-6 -6 -5 -5 -4 -3 -2 -5 -5 -5 -5 -5 -6 -6 -6 -6 -6 -5 -4 -4 -4 -5 -5 -5 -5 -5 -5 -6 -6 -6 -6 -6 -6 -6 -7 -7 -7 -7 -7 -7 -7 -7 -7 -7
-6 -6 -6 -6 -5 -4 -5 -6 -5 -4 -3 -4 -5 -5 -6 -7 -6 -5 -5 -5 -5 -5 -5 -6 -6 -6 -6 -6 -7 -7 -7 -7 -7 -7 -7 -7 -8 -8 -8 -8 -8 -8 -8 -8
-6 -7 -7 -7 -6 -4 -6 -6 -5 -4 -3 -4 -4 -4 -5 -5 -5 -5 -6 -6 -6 -6 -6 -6 -6 -7 -7 -7 -7 -7 -8 -8 -8 -8 -8 -8 -8 -9 -9 -9 -9 -9 -9 -9
-7 -6 -6 -6 -4 -4 -5 -4 -3 -3 -4 -4 -4 -4 -5 -6 -6 -6 -6 -7 -7 -7 -7 -7 -7 -8 -8 -8 -8 -8 -8 -9 -9 -9 -9 -9 -9 -9 -9 -9 -9 -9 -9 -10
-7 -8 -7 -7 -7 -6 -5 -4 -4 -4 -4 -5 -5 -5 -6 -6 -6 -7 -7 -7 -7 -8 -8 -8 -8 -8 -8 -9 -9 -9 -9 -10 -10 -10 -10 -10 -10 -10 -10 -10 -10 -10 -10 -10
-7 -8 -8 -8 -7 -7 -6 -5 -5 -5 -5 -6 -6 -6 -7 -7 -7 -8 -8 -8 -8 -8 -9 -9 -9 -9 -9 -9 -10 -10 -10 -10 -10 -10 -10 -11 -11 -11 -11 -11 -11 -11 -11 -11
-8 -8 -8 -6 -6 -7 -6 -5 -5 -6 -6 -6 -7 -7 -7 -8 -8 -8 -9 -9 -9 -9 -9 -10 -10 -10 -10 -10 -10 -10 -10 -11 -11 -11 -11 -11 -11 -11 -11 -11 -11 -12 -12 -12
Wind_Speed
3 4 1 4 5 4 3 3 5 5 3 2 6 8 10 7 4 6 5 4 4 5 3 2 3 3 3 3 3 3 2 2 2 2 2 2 1 0 1 2 3 4 5 6
4 1 4 3 1 1 2 3 4 5 3 2 4 8 8 6 5 5 5 5 5 4 1 1 2 2 3 3 3 3 3 3 2 2 1 1 1 0 0 1 2 2 4 5
4 3 2 1 1 1 3 3 4 4 5 3 3 7 5 4 2 2 2 3 3 4 4 3 3 3 3 3 3 3 3 3 2 2 2 2 2 2 1 1 1 0 2 3
1 3 1 0 1 2 4 3 2 3 2 5 1 5 7 4 4 3 4 3 3 2 2 2 3 3 3 4 3 3 3 3 2 2 3 4 3 2 2 1 1 0 1 2
2 1 0 2 3 2 3 1 1 1 1 4 2 3 7 2 4 5 5 4 4 3 3 3 3 4 3 3 3 3 2 2 2 2 3 3 2 1 0 0 1 0 0 1
2 1 1 2 1 1 0 3 4 4 3 3 4 5 7 4 5 4 4 4 3 2 2 2 2 2 2 2 2 2 2 2 1 2 2 3 2 2 1 1 1 1 1 1
3 2 1 1 1 2 3 4 3 4 2 6 2 4 8 5 4 4 4 3 2 1 1 1 2 2 2 2 2 2 3 2 2 2 2 3 3 3 4 3 3 2 1 1
1 4 2 0 2 2 2 4 4 4 5 5 3 6 6 3 3 1 0 1 1 1 1 1 2 3 3 3 3 3 4 3 3 3 2 2 2 3 3 3 2 3 2 2
3 4 1 1 0 3 3 3 3 4 1 4 6 6 6 2 2 2 2 2 2 2 2 2 2 1 2 2 3 4 4 3 3 3 3 2 2 2 2 2 2 2 1 1
4 4 3 1 2 1 2 5 4 4 2 5 6 6 5 5 5 4 3 3 3 3 2 2 2 2 2 2 2 2 3 4 3 3 3 3 3 2 2 2 2 2 2 1
3 3 3 1 4 5 3 3 3 3 4 4 5 7 5 6 5 4 5 4 3 3 3 2 2 2 2 1 1 2 2 2 3 3 3 3 3 2 2 3 3 3 2 2
3 3 4 6 2 1 4 6 7 5 5 5 4 8 4 4 3 3 4 4 3 3 2 2 2 2 2 2 1 2 2 3 3 3 3 3 3 3 3 3 3 3 3 3
4 4 1 4 2 1 2 4 4 4 3 5 6 8 2 1 2 3 4 3 3 2 2 2 2 2 2 2 2 1 2 3 3 2 2 2 2 3 4 4 3 3 3 3
4 4 6 8 6 4 4 4 5 6 5 7 10 12 9 6 6 6 5 4 3 2 2 2 3 3 3 3 2 2 2 2 2 2 2 3 3 4 4 4 4 4 4 4
4 4 5 7 5 4 7 8 8 10 10 10 11 11 13 9 7 7 6 4 4 3 3 3 3 3 3 3 3 2 2 2 2 2 3 4 3 3 3 3 4 4 4 4
2 3 2 5 5 5 9 10 11 12 10 12 12 14 12 8 5 6 6 5 5 5 4 4 4 3 3 4 3 3 2 2 2 2 3 3 3 3 3 4 4 4 4 4
3 4 2 5 3 4 9 10 12 8 7 8 12 14 8 7 7 7 7 5 6 6 5 5 4 4 4 4 3 3 3 1 1 2 2 2 2 3 4 4 4 4 4 4
5 4 3 2 1 8 8 2 6 8 8 9 8 8 8 8 7 6 5 5 6 6 5 5 4 3 3 3 2 2 1 0 1 1 2 2 2 2 3 2 3 3 3 3
4 6 3 3 5 10 8 4 5 6 7 7 9 10 8 5 4 6 5 4 6 5 4 4 3 3 2 2 1 1 1 0 1 2 2 2 2 2 2 3 3 3 3 3
2 3 4 4 5 8 7 2 2 3 6 5 6 8 6 1 3 6 3 2 3 3 2 2 2 1 2 2 1 0 1 1 2 3 3 2 2 2 2 3 3 2 2 3
3 3 6 7 8 9 6 2 4 4 7 3 5 6 4 5 7 5 3 3 2 2 2 1 1 1 2 1 0 0 1 3 3 2 2 2 2 2 2 2 2 2 2 2
9 7 7 5 7 10 4 6 8 8 2 2 3 4 5 6 6 5 4 3 2 2 2 1 1 2 2 1 0 1 3 3 2 2 2 2 2 2 2 1 2 2 2 2
9 9 7 10 9 4 6 7 5 3 3 4 4 5 5 6 6 5 4 4 3 3 2 2 2 3 2 1 1 2 3 2 2 2 2 2 2 2 2 1 1 1 1 2
5 3 4 6 9 7 6 5 4 3 4 4 4 4 4 6 7 6 5 4 3 3 3 2 2 3 4 3 2 3 3 2 1 2 2 2 2 2 2 1 2 2 2 3
6 6 5 7 7 5 5 5 6 5 4 4 4 4 4 5 6 5 5 5 4 3 3 2 3 4 4 3 3 3 2 2 2 2 2 2 2 2 2 2 2 3 3 4
5 7 7 9 6 5 5 3 2 3 5 5 4 5 4 5 6 5 5 4 4 4 3 3 3 4 4 3 4 3 2 2 2 2 2 2 2 2 2 2 3 5 5 6
Wind_Direction
51 71 185 232 218 226 220 229 258 268 282 241 246 263 275 276 257 250 255 255 248 249 258 205 180 156 139 141 146 147 133 123 113 125 141 139 153 128 72 100 119 140 146 145
53 279 248 242 242 252 242 260 273 291 324 286 271 277 278 272 253 233 229 240 246 258 282 188 156 139 151 164 171 169 169 155 147 158 161 155 149 157 78 113 108 133 140 147
169 248 261 180 282 249 253 230 250 275 319 328 318 300 280 281 259 236 238 240 248 232 224 204 175 175 168 175 184 189 190 175 156 109 97 81 70 61 53 27 12 47 146 153
231 299 282 195 251 208 259 247 256 276 317 295 328 288 278 270 284 259 253 254 258 254 219 195 184 190 196 201 189 188 186 174 162 137 146 151 166 185 218 222 221 331 163 161
265 314 233 230 253 204 234 309 301 279 227 302 281 235 282 294 272 265 260 257 256 249 217 204 202 205 207 195 177 177 169 169 168 167 172 176 179 195 206 180 173 273 312 170
258 287 221 236 270 195 119 36 32 41 74 283 238 202 276 253 246 258 258 267 268 268 240 223 220 204 210 184 164 161 158 167 174 181 181 184 182 172 168 185 199 227 307 307
316 301 329 41 65 18 60 74 15 352 341 255 246 218 251 265 273 243 241 272 294 282 231 219 214 209 211 205 198 186 173 192 198 191 195 198 195 188 198 204 210 217 232 262
282 284 263 276 182 190 194 143 164 225 246 282 295 239 255 277 303 337 22 272 326 341 312 262 242 224 222 217 211 204 203 204 202 205 218 211 203 199 212 213 213 221 227 235
195 259 300 292 276 145 151 189 171 150 271 279 269 283 299 300 330 345 347 350 317 308 312 286 266 248 238 234 225 211 211 214 212 212 215 212 211 205 212 222 226 236 264 262
171 249 269 311 53 7 150 148 112 145 213 266 283 271 250 252 257 275 287 281 286 305 312 316 296 263 257 249 240 223 214 218 220 214 212 214 217 220 218 211 223 241 257 268
163 195 281 315 203 201 152 159 155 158 182 199 268 269 230 222 228 234 251 257 264 278 285 292 300 284 279 276 255 229 224 226 231 227 217 217 221 222 216 217 228 235 243 246
166 155 247 249 242 215 189 189 164 180 229 205 226 267 264 223 235 229 251 257 264 266 278 288 297 310 319 303 286 249 235 233 238 231 223 222 220 218 217 225 237 238 239 243
151 145 299 323 318 336 235 215 187 163 157 193 214 260 304 341 316 290 269 269 283 290 308 323 329 323 309 298 283 252 245 244 249 233 222 230 231 225 227 231 238 236 238 244
140 177 201 224 231 190 224 223 181 167 203 229 231 250 271 284 290 292 281 266 272 277 293 309 312 309 310 307 285 249 257 250 242 230 226 233 240 237 235 235 234 233 233 233
137 217 235 252 258 226 233 235 210 210 216 225 248 244 260 263 260 261 262 261 264 269 273 273 280 290 300 309 304 275 257 253 235 230 239 247 252 252 246 240 238 238 235 236
144 203 236 271 259 250 262 250 232 232 233 240 257 266 264 271 265 266 262 250 248 256 262 267 273 278 281 283 287 288 267 247 221 231 247 256 255 256 252 249 241 239 237 237
169 166 198 262 302 326 270 238 217 221 217 208 236 251 269 276 261 254 253 245 242 250 261 265 264 263 265 267 270 267 258 239 209 238 265 267 252 255 254 252 244 239 237 238
167 171 192 255 10 249 249 198 195 215 240 226 238 258 260 259 268 266 245 238 254 257 258 263 262 266 271 275 282 275 291 257 232 264 276 273 258 261 265 254 248 244 238 238
183 171 180 195 247 271 283 247 184 201 258 231 232 258 269 284 314 291 257 232 238 247 254 258 261 269 284 292 299 351 337 303 269 271 277 276 263 259 256 249 249 249 240 243
111 158 180 191 222 247 252 231 175 132 269 247 213 243 256 245 285 278 286 265 257 263 268 277 297 311 303 304 345 54 299 297 273 272 277 279 267 253 250 253 257 255 245 247
162 186 208 218 235 260 253 185 124 181 256 247 205 226 216 210 230 262 292 291 266 260 272 291 300 299 293 308 46 301 282 273 278 290 295 291 279 263 254 253 255 251 253 255
184 188 204 197 225 254 201 145 183 222 235 206 215 219 219 236 257 266 262 263 265 270 280 287 295 297 305 299 193 253 267 279 297 296 292 293 295 284 273 255 265 261 246 252
201 198 195 200 220 251 183 202 225 206 216 227 227 238 236 251 262 264 260 257 260 258 266 276 274 291 305 290 233 248 276 291 298 299 291 294 299 300 291 269 267 273 255 250
241 204 202 244 257 254 245 252 268 247 241 256 254 254 245 251 261 261 261 261 260 261 263 269 274 285 292 288 275 262 280 284 273 274 283 288 291 298 304 290 273 264 254 250
223 184 211 248 266 285 263 242 252 267 267 271 270 255 247 250 260 257 259 260 256 260 260 253 252 266 278 285 281 283 280 263 260 268 275 280 280 276 283 279 266 265 251 245
206 195 206 240 236 222 252 251 248 256 265 265 265 271 263 245 252 258 261 260 258 258 254 256 260 268 278 279 279 282 269 247 242 265 270 266 267 267 269 278 294 295 287 288
Height
1513 1518 1522 1520 1519 1518 1518 1519 1519 1517 1514 1515 1516 1514 1510 1507 1507 1506 1505 1505 1504 1504 1505 1506 1507 1507 1508 1508 1509 1510 1512 1513 1514 1515 1516 1518 1519 1520 1522 1524 1525 1526 1527 1529
1518 1522 1519 1518 1517 1518 1518 1520 1520 1518 1515 1515 1516 1513 1508 1505 1504 1502 1502 1502 1501 1501 1502 1502 1503 1503 1504 1505 1506 1508 1509 1510 1511 1512 1514 1515 1516 1518 1519 1520 1522 1523 1524 1525
1519 1520 1517 1517 1518 1518 1519 1520 1520 1519 1517 1516 1517 1513 1507 1503 1501 1500 1500 1499 1499 1498 1498 1499 1499 1500 1501 1502 1503 1504 1506 1507 1508 1510 1511 1512 1514 1515 1516 1517 1518 1519 1520 1521
1520 1518 1517 1517 1518 1518 1520 1518 1518 1518 1521 1523 1520 1519 1507 1504 1502 1499 1498 1497 1496 1496 1496 1496 1496 1497 1498 1499 1500 1501 1502 1504 1505 1507 1507 1508 1509 1510 1511 1513 1514 1515 1517 1518
1521 1519 1518 1518 1518 1518 1518 1518 1518 1519 1522 1526 1523 1523 1509 1505 1502 1499 1497 1495 1494 1494 1493 1493 1494 1494 1495 1496 1497 1498 1499 1500 1502 1503 1504 1505 1506 1508 1509 1510 1511 1512 1513 1514
1520 1519 1519 1518 1518 1518 1518 1520 1521 1525 1526 1527 1521 1523 1510 1505 1499 1496 1495 1493 1492 1491 1491 1491 1492 1492 1493 1493 1494 1495 1496 1497 1498 1500 1501 1502 1503 1504 1505 1506 1507 1508 1509 1510
1521 1519 1518 1518 1518 1519 1520 1524 1529 1530 1533 1524 1519 1519 1509 1499 1497 1495 1493 1492 1491 1489 1489 1489 1489 1490 1490 1490 1491 1491 1492 1493 1495 1496 1497 1498 1499 1500 1501 1502 1503 1504 1505 1506
1522 1521 1519 1518 1519 1521 1522 1523 1529 1532 1531 1525 1521 1516 1503 1498 1496 1493 1493 1492 1490 1489 1488 1488 1488 1487 1487 1488 1488 1489 1489 1490 1491 1492 1494 1495 1496 1497 1498 1499 1499 1500 1501 1502
1523 1521 1519 1518 1518 1519 1522 1525 1525 1532 1537 1536 1522 1515 1504 1497 1495 1494 1493 1491 1490 1489 1488 1487 1486 1486 1485 1485 1486 1486 1486 1487 1488 1489 1490 1491 1492 1493 1494 1494 1495 1496 1497 1498
1521 1524 1520 1519 1519 1519 1520 1523 1530 1532 1532 1530 1521 1517 1505 1498 1496 1494 1493 1491 1489 1488 1487 1486 1485 1484 1484 1483 1483 1483 1483 1484 1484 1486 1487 1487 1488 1489 1490 1490 1491 1492 1493 1494
1520 1524 1522 1521 1521 1519 1522 1524 1526 1531 1532 1531 1526 1510 1496 1494 1492 1492 1491 1489 1488 1487 1486 1484 1483 1483 1482 1481 1481 1481 1481 1481 1481 1482 1483 1484 1484 1485 1486 1486 1487 1488 1489 1489
1519 1524 1525 1521 1518 1518 1518 1519 1523 1526 1527 1532 1528 1509 1491 1491 1490 1490 1489 1488 1487 1486 1484 1483 1482 1481 1480 1479 1478 1478 1478 1478 1478 1478 1479 1480 1480 1481 1481 1482 1483 1484 1484 1485
1518 1523 1523 1517 1520 1521 1520 1519 1520 1522 1526 1530 1525 1504 1490 1490 1489 1488 1488 1486 1485 1484 1482 1481 1480 1478 1477 1476 1476 1475 1475 1475 1475 1475 1475 1476 1476 1476 1477 1478 1478 1479 1479 1480
1514 1520 1519 1513 1509 1514 1517 1516 1518 1521 1522 1521 1512 1498 1490 1490 1489 1487 1486 1484 1483 1482 1480 1479 1478 1476 1475 1474 1473 1472 1472 1472 1471 1471 1471 1471 1472 1472 1473 1473 1474 1474 1475 1475
1514 1517 1518 1514 1512 1513 1511 1510 1512 1513 1510 1509 1498 1496 1487 1486 1486 1484 1483 1481 1480 1479 1478 1477 1475 1474 1473 1471 1471 1470 1469 1468 1468 1468 1467 1467 1468 1468 1469 1469 1469 1469 1470 1471
1514 1517 1518 1515 1510 1511 1508 1504 1505 1504 1504 1502 1498 1492 1482 1483 1482 1481 1479 1478 1477 1475 1474 1474 1472 1471 1470 1469 1467 1466 1465 1465 1465 1464 1464 1464 1464 1464 1464 1464 1464 1465 1465 1466
1515 1517 1517 1513 1513 1509 1503 1494 1496 1497 1495 1495 1493 1484 1479 1480 1478 1476 1475 1474 1473 1472 1471 1470 1469 1468 1467 1466 1464 1463 1463 1462 1461 1461 1460 1460 1459 1459 1459 1459 1460 1460 1460 1461
1512 1515 1516 1516 1515 1508 1487 1487 1487 1489 1487 1487 1483 1479 1477 1475 1473 1472 1471 1470 1469 1469 1468 1467 1465 1464 1463 1462 1461 1460 1459 1458 1457 1457 1457 1456 1455 1455 1455 1455 1455 1455 1455 1456
1507 1511 1515 1516 1513 1500 1488 1484 1486 1487 1483 1479 1479 1476 1474 1472 1471 1468 1467 1466 1466 1465 1464 1463 1462 1461 1459 1458 1457 1456 1455 1455 1454 1453 1453 1452 1451 1451 1450 1450 1450 1450 1451 1451
1507 1508 1512 1514 1508 1497 1480 1480 1479 1483 1482 1473 1473 1472 1471 1471 1473 1466 1464 1463 1462 1461 1461 1459 1458 1457 1456 1455 1454 1453 1452 1451 1451 1450 1449 1449 1448 1447 1446 1446 1446 1446 1446 1446
1507 1509 1509 1508 1505 1489 1478 1477 1479 1485 1474 1468 1467 1467 1468 1468 1467 1464 1461 1460 1459 1458 1457 1456 1455 1454 1453 1452 1451 1450 1449 1448 1448 1447 1446 1445 1444 1444 1443 1442 1442 1442 1442 1442
1498 1503 1506 1505 1503 1486 1473 1475 1475 1470 1465 1465 1464 1464 1464 1463 1461 1460 1458 1457 1456 1455 1454 1453 1452 1451 1450 1449 1448 1447 1446 1446 1445 1444 1443 1442 1441 1440 1439 1439 1438 1438 1438 1437
1488 1485 1485 1485 1477 1468 1466 1464 1463 1463 1463 1462 1461 1461 1460 1459 1457 1456 1454 1453 1452 1451 1450 1449 1449 1448 1447 1446 1445 1444 1443 1442 1441 1440 1439 1438 1438 1437 1436 1435 1435 1434 1434 1433
1480 1478 1479 1477 1468 1464 1463 1461 1461 1461 1460 1459 1458 1457 1456 1454 1453 1452 1450 1449 1448 1447 1446 1446 1445 1444 1443 1443 1442 1441 1440 1439 1438 1437 1436 1435 1434 1433 1433 1432 1431 1431 1430 1430
1472 1474 1474 1471 1463 1461 1458 1457 1457 1457 1456 1455 1454 1453 1452 1450 1449 1448 1446 1445 1444 1443 1443 1442 1441 1440 1440 1439 1438 1438 1437 1436 1435 1433 1433 1432 1431 1430 1429 1429 1428 1427 1427 1427
1465 1466 1467 1461 1457 1458 1454 1454 1454 1453 1452 1450 1449 1448 1447 1446 1444 1443 1442 1441 1440 1439 1439 1438 1437 1436 1436 1435 1434 1434 1433 1432 1431 1430 1429 1428 1428 1427 1426 1425 1424 1424 1423 1423